SCP
0 0 0 0 0 0 0 0 0 0 0 0 0 0 0 0 0 0 0 0 0 0 0 0 0 0 0 0 0 0 0 0 0 0 0 0 0 0 0 0 0 0 0 0 0 0 0 0 0 0 0 0 0 0
0 0 0 0 0 0 0 0 0 0 0 0 0 0 0 0 0 0 0 0 0 0 0 0 0 0 0 0 0 0 0 0 0 0 0 0 0 0 0 0 0 0 0 0 0 0 0 0 0 0 0 0 0 0
0 0 0 0 0 0 0 0 0 0 0 0 0 0 0 0 0 0 0 0 0 0 0 0 0 0 0 0 0 0 0 0 0 0 0 0 0 0 0 0 0 0 0 0 0 0 0 0 0 0 0 0 0 0
0 0 0 0 0 0 0 0 0 0 0 0 0 0 0 0 0 0 0 0 0 0 0 0 0 0 0 0 0 0 0 0 0 0 0 0 0 0 0 0 0 0 0 0 0 0 0 0 0 0 0 0 0 0
0 0 0 0 0 0 0 0 0 0 0 0 0 0 0 0 0 0 0 0 0 0 0 0 0 0 0 0 0 0 0 0 0 0 0 0 0 0 0 0 0 0 0 0 0 0 0 0 0 0 0 0 0 0
0 0 0 0 0 0 0 0 0 0 0 0 0 -0 0 0 0 0 0 0 0 0 0 0 0 0 0 0 0 0 0 0 0 0 0 0 0 0 0 0 0 0 0 0 0 0 0 0 0 0 0 0 0 0
0 0 0 0 0 0 0 0 0 0 0 -0 -0 -0 0 0 0 0 0 0 0 0 0 0 0 0 0 0 0 0 0 0 0 0 0 0 0 0 0 0 0 0 0 0 0 0 0 0 0 0 0 0 0 0
0 0 0 0 0 0 0 0 0 0 0 -0 -0 0 0 0 0 0 0 0 0 0 0 0 0 0 0 0 0 0 0 0 0 0 0 0 0 0 0 0 0 0 0 0 0 0 0 0 0 0 0 0 0 0
0 0 0 0 0 0 0 0 0 0 -0 0 0 0 0 0 0 0 0 0 0 0 0 0 0 0 0 0 0 0 0 0 0 0 0 0 0 0 0 0 0 -0 0 -0 -0 0 0 0 0 0 0 0 0 0
0 0 0 0 0 0 0 0 0 -0 -0 0 0 0 0 0 0 0 0 0 0 0 0 0 0 0 0 0 0 0 0 0 0 0 0 0 0 0 0 0 0 0 -0 -0 0 0 0 0 0 -0 0 -0 0 0
0 0 0 0 0 0 0 0 -0 -0 0 0 0 0 0 0 0 0 0 0 0 0 0 0 0 0 0 0 0 0 0 0 0 0 0 0 0 0 0 0 -0 -0 -0 -0 -0 0 -0 -0 -0 -0 -0 -0 -0 0
0 0 0 0 0 0 0 0 -0 0 0 0 0 0 0 0 0 0 0 0 0 0 0 0 0 0 0 0 0 0 0 0 0 0 0 0 -0 0 0 -0 -0 0 0 -0 -0 -0 -0 -0 -0 -0 -0 -0 -0 0
0 0 0 0 0 0 0 0 0 0 0 0 0 0 0 0 0 0 0 0 0 0 0 0 0 0 0 0 0 0 0 0 0 0 0 0 -0 -0 -0 -0 -0 0 -0 0 -0 -0 -0 -0 -0 0 -0 -0 -0 -0
0 0 0 0 0 0 0 0 0 0 0 0 0 0 0 0 0 0 0 0 0 0 0 0 0 0 0 0 0 0 0 0 0 0 0 -0 -0 -0 0 -0 -0 0 0 0 -0 -0 0 0 -0 -0 -0 -0 -0 -0
0 0 0 0 0 0 0 0 0 0 0 0 0 0 0 0 0 0 0 0 0 0 0 0 0 0 0 0 0 0 0 0 0 0 0 -0 -0 -0 0 0 0 0 -0 0 0 0 0 0 -0 -0 -0 -0 -0 -0
0 0 0 0 0 0 0 0 0 0 0 0 0 0 0 0 0 0 0 0 0 0 0 0 0 0 0 0 0 0 0 0 0 -0 -0 -0 0 0 -0 0 0 0 0 0 0 0 -0 -0 0 -0 -0 -0 -0 -0
0 0 0 0 0 0 0 0 0 0 0 0 0 0 0 0 0 0 0 0 0 0 0 0 0 0 0 0 0 0 0 0 -0 -0 -0 -0 0 0 0 0 -0 -0 -0 -0 -0 0 0 -0 -0 -0 -0 -0 -0 0
0 0 0 0 0 0 0 0 0 0 0 0 0 0 0 0 0 0 0 0 0 0 0 0 0 0 0 0 0 0 -0 -0 -0 -0 0 0 0 0 0 0 0 -0 -0 -0 0 0 0 -0 -0 -0 -0 -0 0 0
0 0 0 0 0 0 0 0 0 0 0 0 0 0 0 0 0 0 0 0 0 0 0 0 0 0 0 0 -0 -0 -0 -0 -0 -0 0 0 -0 0 0 0 -0 -0 0 0 0 0 -0 0 0 0 0 0 0 0
0 0 0 0 0 0 0 0 0 0 0 0 0 0 0 0 -0 0 0 0 0 0 0 0 0 0 0 0 -0 0 -0 -0 -0 0 -0 -0 -0 0 0 0 0 0 0 0 -0 -0 -0 -0 0 0 0 0 0 0
0 0 0 0 0 0 0 0 0 0 0 0 0 0 0 0 0 0 0 0 0 0 -0 -0 -0 0 -0 -0 -0 -0 -0 -0 -0 0 0 -0 0 0 0 0 0 0 0 -0 0 0 0 0 0 0 0 0 0 0
0 0 0 0 0 0 0 0 0 0 0 0 0 0 0 0 0 0 0 0 0 -0 -0 -0 -0 -0 -0 -0 -0 -0 -0 -0 0 0 -0 0 -0 -0 0 0 0 0 0 0 0 0 0 0 0 0 0 0 0 0
0 0 0 0 0 0 0 0 0 0 0 0 0 0 0 -0 -0 -0 -0 -0 -0 -0 -0 -0 -0 -0 -0 -0 -0 -0 0 0 0 0 -0 -0 0 0 0 0 0 0 0 0 0 0 0 0 0 0 0 0 0 0
0 0 0 0 0 0 0 0 0 0 0 0 0 0 -0 -0 -0 -0 -0 0 -0 -0 -0 -0 -0 -0 -0 0 0 0 0 -0 -0 0 0 0 0 0 0 0 0 0 0 0 0 0 0 0 0 0 0 0 0 0
0 0 0 0 0 0 0 0 0 0 0 0 0 -0 -0 -0 -0 -0 0 0 -0 -0 0 0 -0 -0 0 0 0 0 0 0 -0 0 0 0 0 0 0 0 0 0 0 0 0 0 0 0 0 0 0 0 0 0
0 0 0 0 0 0 0 0 0 0 0 0 0 0 -0 -0 0 0 0 0 0 0 0 0 0 0 0 -0 0 0 -0 -0 0 0 0 0 0 0 0 0 0 0 0 0 0 0 0 0 0 0 0 0 0 0
0 0 0 0 0 0 0 0 0 0 0 0 0 0 0 0 0 0 0 0 0 0 0 0 0 0 0 0 0 0 0 0 0 0 0 0 0 0 0 0 0 -0 -0 0 0 0 0 0 0 0 0 0 0 0
0 0 0 0 0 0 0 0 0 0 0 0 0 0 0 0 0 0 0 0 0 -0 -0 -0 -0 -0 0 0 0 -0 0 0 0 0 0 0 0 0 0 0 0 0 0 0 0 0 0 0 0 0 0 0 0 0
0 0 0 0 0 0 0 0 0 0 0 0 0 0 0 0 0 0 -0 0 -0 0 0 -0 -0 0 0 0 0 0 0 0 0 0 0 0 0 0 0 0 0 0 0 0 0 0 0 0 0 0 0 0 0 0
0 0 0 0 0 0 0 0 0 0 0 0 0 0 0 0 -0 -0 0 0 -0 -0 -0 -0 -0 -0 0 0 0 0 0 0 0 0 0 0 0 0 0 0 0 0 0 0 0 0 0 0 0 0 0 0 0 0
0 0 0 0 0 0 0 0 0 0 0 0 0 -0 -0 -0 -0 0 -0 -0 0 -0 -0 -0 -0 -0 -0 -0 -0 0 0 0 0 0 0 0 0 0 0 0 0 0 0 0 0 0 0 0 0 0 0 0 0 0
0 0 0 0 0 0 0 0 0 0 0 0 0 0 0 0 -0 0 0 -0 -0 -0 -0 -0 0 -0 -0 -0 0 -0 -0 -0 -0 0 0 0 0 0 0 0 0 0 0 0 0 0 0 0 0 0 0 0 0 0
0 0 0 0 0 0 0 0 0 0 0 0 0 0 0 0 -0 0 0 0 0 0 0 0 0 0 0 0 0 0 0 0 0 0 0 0 0 0 0 0 0 0 0 0 0 0 0 0 0 0 0 0 0 0
Wind_Speed_500mb
36 40 38 38 37 35 33 27 27 27 28 23 24 21 20 20 19 16 16 16 13 9 20 20 12 9 6 3 5 4 7 4 6 6 5 4 3 2 4 6 3 1 2 4 1 4 13 22 16 4 13 58 52 45
33 32 32 28 28 28 22 22 24 27 24 28 33 22 19 22 20 16 17 16 16 18 15 24 22 24 27 23 2 3 3 3 2 7 2 4 2 3 3 6 8 4 7 4 12 10 9 31 17 48 48 43 40 75
30 28 25 26 25 22 20 20 23 21 20 21 26 24 20 19 11 17 17 16 14 14 25 21 4 4 28 35 23 13 7 5 2 4 8 4 2 6 3 8 5 3 3 3 9 5 27 64 56 34 59 69 72 73
30 29 26 26 25 18 17 22 21 17 16 27 16 24 20 22 17 11 15 14 8 7 5 6 2 3 15 14 11 32 4 10 12 5 5 4 3 9 5 6 6 10 6 5 10 26 42 25 48 71 80 83 82 82
29 31 29 26 25 18 21 21 19 18 21 28 21 23 20 24 18 14 14 13 11 7 6 17 19 7 10 17 13 20 29 17 6 4 4 4 4 3 2 2 6 10 11 7 9 28 33 56 76 85 82 83 83 86
30 30 34 33 30 22 20 18 16 19 22 31 23 25 25 23 16 11 6 15 17 15 7 7 7 6 2 10 24 23 27 24 7 5 5 4 4 4 2 5 16 22 26 30 31 46 63 84 80 83 71 85 86 85
30 30 29 29 28 23 22 19 15 20 25 29 27 26 27 23 20 10 3 3 8 12 4 11 15 3 9 16 22 20 22 8 8 6 7 6 8 10 3 6 19 28 45 46 57 63 60 69 65 85 84 79 78 79
34 30 27 24 25 25 22 21 19 22 25 25 27 32 26 24 21 11 9 9 7 0 3 1 8 6 6 8 11 13 12 14 8 5 6 6 6 8 6 30 42 48 57 57 50 51 60 70 69 66 69 71 75 74
29 29 26 23 23 25 24 22 22 25 25 28 30 31 27 19 12 14 14 8 6 5 3 3 2 4 3 5 9 10 10 4 6 9 7 14 4 8 20 40 44 50 43 57 61 58 50 54 58 61 64 68 67 68
32 28 27 24 23 25 21 24 26 31 31 38 39 13 10 15 12 17 11 6 4 4 7 5 5 5 1 3 4 8 4 4 4 6 11 5 6 44 43 41 40 50 47 38 46 41 52 53 52 52 60 59 59 57
25 26 26 25 25 27 23 29 31 38 45 46 14 7 21 27 14 8 4 5 6 4 9 10 18 5 5 5 5 6 5 1 3 5 7 4 6 14 23 18 51 38 34 33 31 31 29 29 40 56 66 71 60 55
24 22 24 26 29 29 24 34 40 49 32 31 21 29 26 8 4 5 5 3 6 7 10 10 13 17 6 9 4 7 4 3 8 16 5 4 7 18 16 45 42 28 31 29 19 22 22 29 44 53 60 67 62 54
30 26 24 25 32 32 26 35 43 51 46 35 11 9 9 6 5 9 9 6 5 8 15 16 9 10 9 11 4 4 5 7 12 4 6 7 10 19 39 40 29 28 27 21 18 19 30 40 36 42 52 61 61 57
37 29 27 23 29 37 27 38 57 64 41 9 9 10 6 6 8 8 7 7 12 7 17 23 14 7 4 5 5 5 7 4 4 5 5 6 29 31 41 29 25 28 22 18 23 27 34 37 38 35 39 50 61 58
36 28 26 25 24 35 42 59 70 65 9 8 10 8 11 13 12 11 15 11 8 7 18 13 8 6 4 3 5 4 4 6 6 3 7 23 33 38 33 30 24 21 16 17 26 31 32 35 38 41 39 39 49 58
31 25 25 24 26 15 45 73 60 41 10 9 7 4 7 3 6 6 19 20 7 19 17 9 4 4 4 4 4 8 3 7 6 8 21 31 34 30 30 28 24 17 19 21 24 26 29 32 36 41 41 34 37 46
25 12 18 13 39 52 80 71 29 9 8 7 7 16 11 6 9 3 5 11 16 20 5 5 8 9 9 4 5 6 7 7 10 24 31 26 33 31 21 18 22 20 22 23 26 32 36 34 30 32 35 36 29 34
13 15 21 47 88 83 53 19 10 9 10 12 7 12 16 10 6 6 8 13 12 13 14 5 1 4 6 5 4 7 15 20 18 24 27 30 24 18 19 25 24 18 23 24 30 34 30 22 24 24 28 29 29 30
21 30 28 39 56 27 9 7 6 8 6 7 8 12 7 7 12 13 8 10 18 13 6 3 4 5 6 9 7 13 19 24 20 30 35 26 15 16 19 19 14 11 20 27 30 30 25 19 18 22 24 21 21 23
35 30 37 38 15 5 6 6 8 4 6 3 8 9 8 5 16 4 5 20 16 12 8 6 10 8 9 21 27 28 34 16 20 31 26 15 15 17 13 5 11 15 15 17 20 19 20 20 21 21 22 24 21 19
46 37 27 22 9 10 6 5 4 2 1 3 1 6 5 14 22 27 37 27 22 10 11 20 26 30 29 24 29 29 10 14 21 23 23 25 14 12 10 10 11 17 16 15 15 10 15 16 17 18 25 24 32 20
32 31 30 7 10 6 3 4 3 2 2 2 3 3 6 5 7 9 7 16 12 16 22 24 26 28 29 28 17 14 17 26 26 18 12 9 12 12 7 4 5 10 10 9 8 14 23 24 20 20 29 26 23 21
23 21 4 5 7 6 4 8 3 3 3 3 3 2 3 4 3 4 7 9 10 17 19 16 16 18 21 20 22 25 28 24 14 14 17 12 2 5 10 12 15 15 18 16 17 15 19 18 20 24 25 22 17 14
15 4 3 2 5 3 4 5 5 3 3 2 3 4 3 5 9 3 5 7 10 11 16 20 22 23 23 27 30 20 10 9 6 7 7 8 10 1 9 14 15 14 20 15 11 12 15 20 24 29 29 27 23 21
1 2 2 4 2 3 4 4 4 5 1 1 2 3 4 5 2 3 4 7 6 10 10 10 8 7 15 8 8 12 12 12 16 18 18 14 15 13 14 19 22 27 24 19 20 23 26 27 26 25 23 24 27 25
5 3 2 4 4 4 1 1 1 3 3 3 4 2 3 3 3 6 5 6 18 26 20 12 21 24 13 6 17 20 18 18 21 32 35 33 32 29 28 27 28 34 34 31 28 30 29 28 24 22 25 27 25 22
4 3 3 3 4 4 3 4 3 3 2 1 1 1 1 4 5 7 16 13 12 23 26 28 27 24 20 23 29 31 32 31 27 29 26 21 21 23 24 26 26 26 28 29 29 33 35 34 30 24 18 14 15 18
2 4 2 9 2 5 2 4 2 2 2 2 2 4 3 4 2 11 39 41 30 29 27 27 25 27 28 28 29 26 24 19 17 14 11 10 13 14 16 17 18 18 20 22 21 22 26 28 28 25 21 18 17 17
1 2 2 1 3 3 3 4 4 5 3 5 2 2 4 5 20 29 25 25 27 27 28 28 30 25 24 20 15 10 10 8 2 2 3 4 6 9 12 15 18 16 15 17 16 17 21 24 26 25 23 21 18 15
3 7 2 2 1 4 7 7 6 6 6 8 6 16 28 20 25 16 11 13 18 24 26 23 20 16 18 13 15 13 12 11 10 8 8 7 7 8 9 15 20 18 16 14 14 17 19 20 20 17 16 17 18 16
4 5 4 2 5 5 7 7 13 15 19 23 34 39 31 21 19 18 19 21 18 20 26 28 30 30 29 29 27 24 24 24 22 19 16 13 9 5 6 11 16 15 14 15 16 16 15 16 15 13 13 14 13 13
9 7 5 3 5 10 11 12 13 15 16 20 18 21 23 24 12 10 20 25 24 23 24 25 27 28 26 28 30 32 36 32 31 34 32 23 12 4 4 8 9 11 14 15 15 11 11 11 9 8 9 10 12 14
3 3 4 1 4 4 6 7 8 6 8 7 15 17 10 9 8 7 9 7 5 11 11 12 12 12 14 15 17 19 22 26 32 35 38 34 24 14 10 10 12 13 17 18 11 10 9 10 11 13 15 16 17 18
Wind_Direction_500mb
283 291 294 274 277 282 280 286 293 287 289 273 236 219 224 239 243 269 254 244 239 258 276 262 248 229 193 206 146 316 355 328 23 73 132 201 159 306 319 282 287 211 32 258 56 274 274 13 351 25 285 311 307 322
283 289 298 292 284 280 277 285 290 289 286 279 204 212 210 237 239 256 245 250 260 258 273 284 267 261 253 243 193 266 241 245 159 93 66 95 106 26 150 277 340 278 181 218 185 235 338 325 304 310 308 299 299 310
275 283 289 297 291 277 266 287 285 278 282 220 204 208 212 207 251 249 243 250 279 291 288 286 311 289 239 230 223 221 226 205 169 98 140 151 172 135 222 249 309 335 87 236 9 350 313 312 318 324 314 307 308 306
267 272 278 289 294 271 280 281 281 258 243 219 216 194 209 212 219 229 238 242 271 295 297 296 168 97 158 162 212 208 141 163 136 121 83 117 170 183 220 259 209 219 355 241 261 289 310 304 305 311 316 315 310 309
274 259 268 275 279 267 272 276 267 245 224 216 207 196 218 209 215 228 240 240 253 260 277 296 306 195 194 223 211 191 190 162 99 89 81 220 223 146 287 331 257 199 203 170 248 290 284 289 305 312 310 308 309 306
281 274 261 261 266 253 258 261 259 230 218 208 207 207 212 199 201 211 241 238 244 241 289 317 332 109 292 186 181 183 193 216 214 177 198 213 224 178 84 255 263 257 261 274 270 291 295 300 311 312 306 305 309 305
289 278 272 267 258 243 246 244 235 223 210 208 212 202 195 189 192 185 231 192 184 180 272 302 326 42 102 135 165 172 179 184 199 188 205 206 203 176 250 242 262 275 293 296 299 305 297 305 302 307 310 317 322 315
284 274 264 265 249 231 235 235 220 215 202 196 199 176 173 182 180 183 167 141 124 205 253 315 282 352 141 153 127 171 183 199 214 210 179 199 145 205 256 249 269 293 311 309 310 309 300 305 312 324 325 319 319 319
285 265 252 255 242 227 230 220 209 198 195 176 164 163 165 167 164 186 174 183 235 271 270 233 207 210 24 119 126 147 170 166 197 211 220 157 182 227 230 257 288 313 307 305 307 312 322 322 330 334 335 330 320 322
276 263 248 240 232 222 213 208 196 192 190 169 160 136 148 157 157 160 180 211 210 228 227 239 229 263 10 97 98 125 159 191 210 220 150 197 249 254 263 277 304 314 320 334 321 322 330 336 336 340 345 342 337 333
271 253 242 231 221 213 212 199 196 184 185 156 136 106 142 137 142 179 177 189 179 241 218 228 216 236 194 119 172 187 170 200 256 246 151 230 259 246 253 280 332 328 338 342 340 352 3 4 2 2 358 1 353 349
266 251 234 223 214 208 215 191 186 186 172 155 139 130 132 131 159 126 213 177 195 234 202 190 211 201 201 201 142 180 154 102 242 152 191 235 254 262 270 325 327 335 342 343 359 355 1 357 358 356 360 3 6 2
256 241 227 218 211 208 216 188 187 190 166 140 108 130 146 167 163 200 191 210 219 210 194 175 174 156 162 189 168 139 174 232 122 192 233 230 272 318 330 330 333 340 351 357 0 348 338 336 354 356 359 5 8 19
232 218 214 219 211 202 205 189 179 165 158 108 138 139 211 188 239 202 188 200 218 214 189 178 145 150 131 148 160 187 229 118 229 222 240 251 319 324 332 338 334 340 354 5 5 0 344 0 1 359 359 5 11 17
200 196 207 213 211 203 189 182 175 188 108 141 162 183 200 224 239 243 238 242 230 199 147 144 101 133 108 243 203 245 223 243 222 234 234 302 328 327 327 340 348 355 356 352 353 352 359 8 7 9 7 8 11 16
167 187 204 194 200 186 187 168 159 161 120 174 197 162 194 200 311 216 222 250 171 165 134 132 142 140 187 189 181 222 219 223 230 226 291 321 329 324 333 334 348 357 352 341 346 350 352 353 353 355 359 2 13 15
168 176 182 209 180 173 156 155 134 103 150 196 216 211 218 231 236 218 173 197 171 152 136 175 180 200 130 197 224 194 211 215 253 305 315 314 313 314 335 325 334 325 333 333 336 338 339 343 351 355 2 13 16 17
145 156 157 123 149 157 148 110 112 148 190 203 191 190 204 209 193 228 236 191 169 164 138 195 280 213 217 199 226 239 247 279 283 305 314 319 320 317 323 326 326 306 317 328 333 332 342 342 352 351 356 3 12 18
145 153 148 144 152 114 99 127 154 165 186 166 203 196 181 199 247 246 188 172 174 152 170 226 215 217 231 219 235 288 290 291 288 313 320 329 308 327 334 320 319 330 330 336 335 336 355 335 334 348 348 351 4 6
133 133 150 125 77 97 117 120 157 139 163 158 195 188 192 197 131 71 247 192 186 177 196 215 217 224 234 304 311 309 307 291 290 319 328 332 335 318 329 358 320 333 329 344 355 351 340 356 360 344 343 336 328 328
141 136 137 165 55 58 81 116 138 129 91 227 94 200 224 235 243 239 250 244 205 216 226 234 251 271 288 293 299 301 279 286 304 309 306 318 347 355 344 333 342 346 327 309 317 341 349 355 352 341 332 333 340 302
126 151 147 101 25 44 75 134 106 62 317 326 332 244 252 239 222 185 186 195 219 223 225 244 259 270 276 282 276 268 284 297 299 285 282 301 351 23 358 325 16 25 23 20 1 340 344 343 347 348 343 347 344 336
126 141 76 335 352 27 65 149 38 14 47 332 310 277 282 278 255 297 250 239 249 260 252 252 252 247 249 258 269 281 292 292 276 274 262 242 359 79 64 46 38 24 9 2 353 349 348 353 10 8 1 353 344 339
115 73 80 239 243 283 158 194 216 202 209 34 49 312 302 301 325 270 254 256 238 238 257 271 270 264 270 276 277 276 250 241 255 333 2 166 184 159 21 21 357 352 324 343 18 18 24 15 6 355 351 350 354 355
6 40 14 311 332 351 46 37 24 53 346 333 324 305 313 323 318 277 249 288 306 307 269 279 299 268 266 253 234 211 197 130 82 76 76 68 50 38 47 45 45 47 50 34 24 12 4 356 357 4 13 22 28 25
78 30 62 0 358 80 254 73 263 224 199 249 240 272 356 345 291 253 257 268 264 270 256 255 209 198 174 132 113 110 129 138 118 99 87 76 69 66 65 59 57 51 41 29 23 23 23 26 31 34 34 42 36 33
28 341 20 3 345 313 317 260 261 216 237 255 326 337 295 249 260 272 280 319 54 71 86 104 105 110 113 121 107 107 113 119 109 101 99 86 73 60 50 49 47 42 31 27 29 34 35 34 32 33 32 32 33 37
306 338 80 345 344 359 336 334 321 240 268 262 232 223 228 225 233 68 88 97 83 77 79 80 86 87 90 107 117 113 118 110 104 108 107 82 59 46 30 25 22 15 6 6 16 27 31 32 30 27 29 37 47 50
265 296 254 23 44 339 274 243 257 250 220 209 227 222 300 26 111 120 88 89 90 85 81 79 77 85 90 94 109 107 90 53 74 72 128 69 26 30 17 9 5 351 342 347 358 13 20 20 21 26 34 39 43 39
300 170 327 21 234 266 267 234 286 349 306 274 333 98 117 112 118 125 98 115 104 85 86 95 95 87 84 81 94 92 80 59 39 26 15 360 350 336 350 12 21 21 12 359 349 357 6 11 14 18 27 40 44 42
154 187 308 260 280 332 27 38 30 42 64 82 100 103 105 98 89 87 79 85 96 90 97 99 95 86 80 75 67 59 57 46 36 27 15 4 353 322 343 11 24 25 11 355 347 339 342 353 6 18 26 26 27 22
180 208 302 314 83 73 64 47 55 74 89 109 109 117 109 97 88 98 114 109 99 103 105 102 94 91 81 72 67 63 58 56 44 35 29 30 38 29 1 13 15 9 7 360 347 331 323 330 347 358 2 3 357 352
179 226 289 10 91 74 84 79 59 58 54 101 118 117 87 71 75 117 137 151 99 67 92 105 97 91 82 66 54 49 45 41 36 32 34 36 39 33 4 351 348 350 353 355 359 348 336 330 329 330 328 328 329 331
Wind_Speed_850mb
36 40 38 38 37 35 33 27 27 27 28 23 24 21 20 20 19 16 16 16 13 9 20 20 12 9 6 3 5 4 7 4 6 6 5 4 3 2 4 6 3 1 2 4 1 4 13 22 16 4 13 58 52 45
33 32 32 28 28 28 22 22 24 27 24 28 33 22 19 22 20 16 17 16 16 18 15 24 22 24 27 23 2 3 3 3 2 7 2 4 2 3 3 6 8 4 7 4 12 10 9 31 17 48 48 43 40 75
30 28 25 26 25 22 20 20 23 21 20 21 26 24 20 19 11 17 17 16 14 14 25 21 4 4 28 35 23 13 7 5 2 4 8 4 2 6 3 8 5 3 3 3 9 5 27 64 56 34 59 69 72 73
30 29 26 26 25 18 17 22 21 17 16 27 16 24 20 22 17 11 15 14 8 7 5 6 2 3 15 14 11 32 4 10 12 5 5 4 3 9 5 6 6 10 6 5 10 26 42 25 48 71 80 83 82 82
29 31 29 26 25 18 21 21 19 18 21 28 21 23 20 24 18 14 14 13 11 7 6 17 19 7 10 17 13 20 29 17 6 4 4 4 4 3 2 2 6 10 11 7 9 28 33 56 76 85 82 83 83 86
30 30 34 33 30 22 20 18 16 19 22 31 23 25 25 23 16 11 6 15 17 15 7 7 7 6 2 10 24 23 27 24 7 5 5 4 4 4 2 5 16 22 26 30 31 46 63 84 80 83 71 85 86 85
30 30 29 29 28 23 22 19 15 20 25 29 27 26 27 23 20 10 3 3 8 12 4 11 15 3 9 16 22 20 22 8 8 6 7 6 8 10 3 6 19 28 45 46 57 63 60 69 65 85 84 79 78 79
34 30 27 24 25 25 22 21 19 22 25 25 27 32 26 24 21 11 9 9 7 0 3 1 8 6 6 8 11 13 12 14 8 5 6 6 6 8 6 30 42 48 57 57 50 51 60 70 69 66 69 71 75 74
29 29 26 23 23 25 24 22 22 25 25 28 30 31 27 19 12 14 14 8 6 5 3 3 2 4 3 5 9 10 10 4 6 9 7 14 4 8 20 40 44 50 43 57 61 58 50 54 58 61 64 68 67 68
32 28 27 24 23 25 21 24 26 31 31 38 39 13 10 15 12 17 11 6 4 4 7 5 5 5 1 3 4 8 4 4 4 6 11 5 6 44 43 41 40 50 47 38 46 41 52 53 52 52 60 59 59 57
25 26 26 25 25 27 23 29 31 38 45 46 14 7 21 27 14 8 4 5 6 4 9 10 18 5 5 5 5 6 5 1 3 5 7 4 6 14 23 18 51 38 34 33 31 31 29 29 40 56 66 71 60 55
24 22 24 26 29 29 24 34 40 49 32 31 21 29 26 8 4 5 5 3 6 7 10 10 13 17 6 9 4 7 4 3 8 16 5 4 7 18 16 45 42 28 31 29 19 22 22 29 44 53 60 67 62 54
30 26 24 25 32 32 26 35 43 51 46 35 11 9 9 6 5 9 9 6 5 8 15 16 9 10 9 11 4 4 5 7 12 4 6 7 10 19 39 40 29 28 27 21 18 19 30 40 36 42 52 61 61 57
37 29 27 23 29 37 27 38 57 64 41 9 9 10 6 6 8 8 7 7 12 7 17 23 14 7 4 5 5 5 7 4 4 5 5 6 29 31 41 29 25 28 22 18 23 27 34 37 38 35 39 50 61 58
36 28 26 25 24 35 42 59 70 65 9 8 10 8 11 13 12 11 15 11 8 7 18 13 8 6 4 3 5 4 4 6 6 3 7 23 33 38 33 30 24 21 16 17 26 31 32 35 38 41 39 39 49 58
31 25 25 24 26 15 45 73 60 41 10 9 7 4 7 3 6 6 19 20 7 19 17 9 4 4 4 4 4 8 3 7 6 8 21 31 34 30 30 28 24 17 19 21 24 26 29 32 36 41 41 34 37 46
25 12 18 13 39 52 80 71 29 9 8 7 7 16 11 6 9 3 5 11 16 20 5 5 8 9 9 4 5 6 7 7 10 24 31 26 33 31 21 18 22 20 22 23 26 32 36 34 30 32 35 36 29 34
13 15 21 47 88 83 53 19 10 9 10 12 7 12 16 10 6 6 8 13 12 13 14 5 1 4 6 5 4 7 15 20 18 24 27 30 24 18 19 25 24 18 23 24 30 34 30 22 24 24 28 29 29 30
21 30 28 39 56 27 9 7 6 8 6 7 8 12 7 7 12 13 8 10 18 13 6 3 4 5 6 9 7 13 19 24 20 30 35 26 15 16 19 19 14 11 20 27 30 30 25 19 18 22 24 21 21 23
35 30 37 38 15 5 6 6 8 4 6 3 8 9 8 5 16 4 5 20 16 12 8 6 10 8 9 21 27 28 34 16 20 31 26 15 15 17 13 5 11 15 15 17 20 19 20 20 21 21 22 24 21 19
46 37 27 22 9 10 6 5 4 2 1 3 1 6 5 14 22 27 37 27 22 10 11 20 26 30 29 24 29 29 10 14 21 23 23 25 14 12 10 10 11 17 16 15 15 10 15 16 17 18 25 24 32 20
32 31 30 7 10 6 3 4 3 2 2 2 3 3 6 5 7 9 7 16 12 16 22 24 26 28 29 28 17 14 17 26 26 18 12 9 12 12 7 4 5 10 10 9 8 14 23 24 20 20 29 26 23 21
23 21 4 5 7 6 4 8 3 3 3 3 3 2 3 4 3 4 7 9 10 17 19 16 16 18 21 20 22 25 28 24 14 14 17 12 2 5 10 12 15 15 18 16 17 15 19 18 20 24 25 22 17 14
15 4 3 2 5 3 4 5 5 3 3 2 3 4 3 5 9 3 5 7 10 11 16 20 22 23 23 27 30 20 10 9 6 7 7 8 10 1 9 14 15 14 20 15 11 12 15 20 24 29 29 27 23 21
1 2 2 4 2 3 4 4 4 5 1 1 2 3 4 5 2 3 4 7 6 10 10 10 8 7 15 8 8 12 12 12 16 18 18 14 15 13 14 19 22 27 24 19 20 23 26 27 26 25 23 24 27 25
5 3 2 4 4 4 1 1 1 3 3 3 4 2 3 3 3 6 5 6 18 26 20 12 21 24 13 6 17 20 18 18 21 32 35 33 32 29 28 27 28 34 34 31 28 30 29 28 24 22 25 27 25 22
4 3 3 3 4 4 3 4 3 3 2 1 1 1 1 4 5 7 16 13 12 23 26 28 27 24 20 23 29 31 32 31 27 29 26 21 21 23 24 26 26 26 28 29 29 33 35 34 30 24 18 14 15 18
2 4 2 9 2 5 2 4 2 2 2 2 2 4 3 4 2 11 39 41 30 29 27 27 25 27 28 28 29 26 24 19 17 14 11 10 13 14 16 17 18 18 20 22 21 22 26 28 28 25 21 18 17 17
1 2 2 1 3 3 3 4 4 5 3 5 2 2 4 5 20 29 25 25 27 27 28 28 30 25 24 20 15 10 10 8 2 2 3 4 6 9 12 15 18 16 15 17 16 17 21 24 26 25 23 21 18 15
3 7 2 2 1 4 7 7 6 6 6 8 6 16 28 20 25 16 11 13 18 24 26 23 20 16 18 13 15 13 12 11 10 8 8 7 7 8 9 15 20 18 16 14 14 17 19 20 20 17 16 17 18 16
4 5 4 2 5 5 7 7 13 15 19 23 34 39 31 21 19 18 19 21 18 20 26 28 30 30 29 29 27 24 24 24 22 19 16 13 9 5 6 11 16 15 14 15 16 16 15 16 15 13 13 14 13 13
9 7 5 3 5 10 11 12 13 15 16 20 18 21 23 24 12 10 20 25 24 23 24 25 27 28 26 28 30 32 36 32 31 34 32 23 12 4 4 8 9 11 14 15 15 11 11 11 9 8 9 10 12 14
3 3 4 1 4 4 6 7 8 6 8 7 15 17 10 9 8 7 9 7 5 11 11 12 12 12 14 15 17 19 22 26 32 35 38 34 24 14 10 10 12 13 17 18 11 10 9 10 11 13 15 16 17 18
Wind_Direction_850mb
283 291 294 274 277 282 280 286 293 287 289 273 236 219 224 239 243 269 254 244 239 258 276 262 248 229 193 206 146 316 355 328 23 73 132 201 159 306 319 282 287 211 32 258 56 274 274 13 351 25 285 311 307 322
283 289 298 292 284 280 277 285 290 289 286 279 204 212 210 237 239 256 245 250 260 258 273 284 267 261 253 243 193 266 241 245 159 93 66 95 106 26 150 277 340 278 181 218 185 235 338 325 304 310 308 299 299 310
275 283 289 297 291 277 266 287 285 278 282 220 204 208 212 207 251 249 243 250 279 291 288 286 311 289 239 230 223 221 226 205 169 98 140 151 172 135 222 249 309 335 87 236 9 350 313 312 318 324 314 307 308 306
267 272 278 289 294 271 280 281 281 258 243 219 216 194 209 212 219 229 238 242 271 295 297 296 168 97 158 162 212 208 141 163 136 121 83 117 170 183 220 259 209 219 355 241 261 289 310 304 305 311 316 315 310 309
274 259 268 275 279 267 272 276 267 245 224 216 207 196 218 209 215 228 240 240 253 260 277 296 306 195 194 223 211 191 190 162 99 89 81 220 223 146 287 331 257 199 203 170 248 290 284 289 305 312 310 308 309 306
281 274 261 261 266 253 258 261 259 230 218 208 207 207 212 199 201 211 241 238 244 241 289 317 332 109 292 186 181 183 193 216 214 177 198 213 224 178 84 255 263 257 261 274 270 291 295 300 311 312 306 305 309 305
289 278 272 267 258 243 246 244 235 223 210 208 212 202 195 189 192 185 231 192 184 180 272 302 326 42 102 135 165 172 179 184 199 188 205 206 203 176 250 242 262 275 293 296 299 305 297 305 302 307 310 317 322 315
284 274 264 265 249 231 235 235 220 215 202 196 199 176 173 182 180 183 167 141 124 205 253 315 282 352 141 153 127 171 183 199 214 210 179 199 145 205 256 249 269 293 311 309 310 309 300 305 312 324 325 319 319 319
285 265 252 255 242 227 230 220 209 198 195 176 164 163 165 167 164 186 174 183 235 271 270 233 207 210 24 119 126 147 170 166 197 211 220 157 182 227 230 257 288 313 307 305 307 312 322 322 330 334 335 330 320 322
276 263 248 240 232 222 213 208 196 192 190 169 160 136 148 157 157 160 180 211 210 228 227 239 229 263 10 97 98 125 159 191 210 220 150 197 249 254 263 277 304 314 320 334 321 322 330 336 336 340 345 342 337 333
271 253 242 231 221 213 212 199 196 184 185 156 136 106 142 137 142 179 177 189 179 241 218 228 216 236 194 119 172 187 170 200 256 246 151 230 259 246 253 280 332 328 338 342 340 352 3 4 2 2 358 1 353 349
266 251 234 223 214 208 215 191 186 186 172 155 139 130 132 131 159 126 213 177 195 234 202 190 211 201 201 201 142 180 154 102 242 152 191 235 254 262 270 325 327 335 342 343 359 355 1 357 358 356 360 3 6 2
256 241 227 218 211 208 216 188 187 190 166 140 108 130 146 167 163 200 191 210 219 210 194 175 174 156 162 189 168 139 174 232 122 192 233 230 272 318 330 330 333 340 351 357 0 348 338 336 354 356 359 5 8 19
232 218 214 219 211 202 205 189 179 165 158 108 138 139 211 188 239 202 188 200 218 214 189 178 145 150 131 148 160 187 229 118 229 222 240 251 319 324 332 338 334 340 354 5 5 0 344 0 1 359 359 5 11 17
200 196 207 213 211 203 189 182 175 188 108 141 162 183 200 224 239 243 238 242 230 199 147 144 101 133 108 243 203 245 223 243 222 234 234 302 328 327 327 340 348 355 356 352 353 352 359 8 7 9 7 8 11 16
167 187 204 194 200 186 187 168 159 161 120 174 197 162 194 200 311 216 222 250 171 165 134 132 142 140 187 189 181 222 219 223 230 226 291 321 329 324 333 334 348 357 352 341 346 350 352 353 353 355 359 2 13 15
168 176 182 209 180 173 156 155 134 103 150 196 216 211 218 231 236 218 173 197 171 152 136 175 180 200 130 197 224 194 211 215 253 305 315 314 313 314 335 325 334 325 333 333 336 338 339 343 351 355 2 13 16 17
145 156 157 123 149 157 148 110 112 148 190 203 191 190 204 209 193 228 236 191 169 164 138 195 280 213 217 199 226 239 247 279 283 305 314 319 320 317 323 326 326 306 317 328 333 332 342 342 352 351 356 3 12 18
145 153 148 144 152 114 99 127 154 165 186 166 203 196 181 199 247 246 188 172 174 152 170 226 215 217 231 219 235 288 290 291 288 313 320 329 308 327 334 320 319 330 330 336 335 336 355 335 334 348 348 351 4 6
133 133 150 125 77 97 117 120 157 139 163 158 195 188 192 197 131 71 247 192 186 177 196 215 217 224 234 304 311 309 307 291 290 319 328 332 335 318 329 358 320 333 329 344 355 351 340 356 360 344 343 336 328 328
141 136 137 165 55 58 81 116 138 129 91 227 94 200 224 235 243 239 250 244 205 216 226 234 251 271 288 293 299 301 279 286 304 309 306 318 347 355 344 333 342 346 327 309 317 341 349 355 352 341 332 333 340 302
126 151 147 101 25 44 75 134 106 62 317 326 332 244 252 239 222 185 186 195 219 223 225 244 259 270 276 282 276 268 284 297 299 285 282 301 351 23 358 325 16 25 23 20 1 340 344 343 347 348 343 347 344 336
126 141 76 335 352 27 65 149 38 14 47 332 310 277 282 278 255 297 250 239 249 260 252 252 252 247 249 258 269 281 292 292 276 274 262 242 359 79 64 46 38 24 9 2 353 349 348 353 10 8 1 353 344 339
115 73 80 239 243 283 158 194 216 202 209 34 49 312 302 301 325 270 254 256 238 238 257 271 270 264 270 276 277 276 250 241 255 333 2 166 184 159 21 21 357 352 324 343 18 18 24 15 6 355 351 350 354 355
6 40 14 311 332 351 46 37 24 53 346 333 324 305 313 323 318 277 249 288 306 307 269 279 299 268 266 253 234 211 197 130 82 76 76 68 50 38 47 45 45 47 50 34 24 12 4 356 357 4 13 22 28 25
78 30 62 0 358 80 254 73 263 224 199 249 240 272 356 345 291 253 257 268 264 270 256 255 209 198 174 132 113 110 129 138 118 99 87 76 69 66 65 59 57 51 41 29 23 23 23 26 31 34 34 42 36 33
28 341 20 3 345 313 317 260 261 216 237 255 326 337 295 249 260 272 280 319 54 71 86 104 105 110 113 121 107 107 113 119 109 101 99 86 73 60 50 49 47 42 31 27 29 34 35 34 32 33 32 32 33 37
306 338 80 345 344 359 336 334 321 240 268 262 232 223 228 225 233 68 88 97 83 77 79 80 86 87 90 107 117 113 118 110 104 108 107 82 59 46 30 25 22 15 6 6 16 27 31 32 30 27 29 37 47 50
265 296 254 23 44 339 274 243 257 250 220 209 227 222 300 26 111 120 88 89 90 85 81 79 77 85 90 94 109 107 90 53 74 72 128 69 26 30 17 9 5 351 342 347 358 13 20 20 21 26 34 39 43 39
300 170 327 21 234 266 267 234 286 349 306 274 333 98 117 112 118 125 98 115 104 85 86 95 95 87 84 81 94 92 80 59 39 26 15 360 350 336 350 12 21 21 12 359 349 357 6 11 14 18 27 40 44 42
154 187 308 260 280 332 27 38 30 42 64 82 100 103 105 98 89 87 79 85 96 90 97 99 95 86 80 75 67 59 57 46 36 27 15 4 353 322 343 11 24 25 11 355 347 339 342 353 6 18 26 26 27 22
180 208 302 314 83 73 64 47 55 74 89 109 109 117 109 97 88 98 114 109 99 103 105 102 94 91 81 72 67 63 58 56 44 35 29 30 38 29 1 13 15 9 7 360 347 331 323 330 347 358 2 3 357 352
179 226 289 10 91 74 84 79 59 58 54 101 118 117 87 71 75 117 137 151 99 67 92 105 97 91 82 66 54 49 45 41 36 32 34 36 39 33 4 351 348 350 353 355 359 348 336 330 329 330 328 328 329 331